Regional Weather Roundup
Issued by NWS

Home | Current Version | Previous Version | Graphics & Text | Print | Product List | Glossary On
Versions: 1 2 3 4 5 6 7 8 9 10 11 12 13 14 15 16 17 18 19 20 21 22 23 24 25 26 27 28 29 30 31 32 33 34 35 36 37 38 39 40 41 42 43 44 45 46 47 48 49 50
000
ASUS43 KIND 010509
RWRIN

WEATHER ROUNDUP FOR INDIANA
NATIONAL WEATHER SERVICE INDIANAPOLIS IN
100 AM EDT WED OCT 01 2014

NOTE: "FAIR" INDICATES FEW OR NO CLOUDS BELOW 12,000 FEET WITH NO
SIGNIFICANT WEATHER AND/OR OBSTRUCTIONS TO VISIBILITY.

* - STATION DOES NOT REPORT WEATHER SUCH AS PRECIPITATION OR FOG.

+ - STATION NOT QUALITY CONTROLLED BY THE NATIONAL WEATHER SERVICE.
    USE DATA WITH CAUTION...ESPECIALLY DEWPOINT AND RELATIVE
    HUMIDITY OBSERVATIONS.

INZ001>003-010>013-019-020-010600-
NORTHWEST INDIANA

CITY           SKY/WX    TMP DP  RH WIND       PRES   REMARKS
GARY /AIRPORT/ CLOUDY    55  47  75 E7        30.03S
KNOX *+        PTCLDY    46  43  91 CALM      30.02S
LA PORTE +     MOCLDY    52  49  90 CALM      30.03F
MICHIGAN CITY+ CLOUDY    52  46  82 CALM      30.03F
MONTICELLO +   CLEAR     46  46  98 NE3       30.01F
RENSSELAER +   CLEAR     46  46 100 NE3       30.03S
VALPARAISO     PTCLDY    50  46  86 CALM      30.03S

$$

LMZ046-743>745-010600-
SOUTHERN LAKE MICHIGAN

STATION/POSITION TIME  TEMP WIND        PRES
                       AIR  DIR/SP/G
                 (UTC) (F)  (DEG/KT/KT) (MB)
MICHIGAN CITY    0500   54   60/  3/  4   N/A

$$

INZ004-005-014>016-021>024-010600-
NORTH CENTRAL INDIANA

CITY           SKY/WX    TMP DP  RH WIND       PRES   REMARKS
LOGANSPORT +   CLEAR     45  43  93 CALM      30.03S FOG
PERU/GRISSOM   PTCLDY    47  47 100 NE2       30.01F
ROCHESTER +    PTCLDY    46  45  93 CALM      30.02F
SOUTH BEND     NOT AVBL
WARSAW +       CLOUDY    54  46  76 E3        30.03R

$$

INZ006>009-017-018-025>027-010600-
NORTHEAST INDIANA

CITY           SKY/WX    TMP DP  RH WIND       PRES   REMARKS
ANGOLA *+      CLOUDY    54  46  76 CALM      30.03S
AUBURN +       CLEAR     52  46  82 CALM      30.03S
FORT WAYNE     MOCLDY    55  48  77 E6        30.02S
HUNTINGTON +   CLOUDY    50  48  92 CALM      30.02R

$$

INZ028-029-035-036-043>045-051>053-010600-
WEST CENTRAL INDIANA

CITY           SKY/WX    TMP DP  RH WIND       PRES   REMARKS
GREENCASTLE +  CLEAR     52  48  87 E3        30.00S
LAFAYETTE      CLEAR     49  46  90 NE5       30.02R
TERRE HAUTE    PTCLDY    55  49  80 NE7       29.98S

$$

INZ030>032-037>040-046>048-054>057-064-065-010600-
CENTRAL INDIANA

CITY           SKY/WX    TMP DP  RH WIND       PRES   REMARKS
CP ATTERBURY + CLEAR     52  46  82 CALM      30.00S
FRANKFORT +    CLEAR    N/A N/A N/A NE3       30.02S
GREENWOOD *+   CLEAR     52  45  76 CALM      30.01
INDIANAPOLIS   PTCLDY    53  46  77 E5        29.99S
-EAGLE CREEK   CLEAR     51  46  83 CALM      30.00S
KOKOMO *+      CLEAR     43  39  87 CALM      30.02F
MARION +       PTCLDY    43  42  96 CALM      30.02S
MT COMFORT *+  CLEAR     45  45 100 CALM      30.01S
SHELBYVILLE    CLEAR     51  47  86 NE5       30.00R
ZIONSVILLE +   CLEAR     45  42  89 CALM      30.02S

$$

INZ033-034-041-042-049-050-058-059-010600-
EAST CENTRAL INDIANA

CITY           SKY/WX    TMP DP  RH WIND       PRES   REMARKS
MUNCIE         CLEAR     43  41  93 CALM      30.01S

$$

INZ060-061-067>069-081>083-085>088-010600-
SOUTHWEST INDIANA

CITY           SKY/WX    TMP DP  RH WIND       PRES   REMARKS
EVANSVILLE     CLEAR     65  59  81 CALM      29.94R
WASHINGTON +   CLEAR     58  57  97 CALM      29.95S

$$

INZ062-063-066-070>080-084-089>092-010600-
SOUTH CENTRAL AND SOUTHEAST INDIANA

CITY           SKY/WX    TMP DP  RH WIND       PRES   REMARKS
BLOOMINGTON    CLEAR     57  51  80 E5        29.98R

$$




USA.gov is the U.S. government's official web portal to all federal, state and local government web resources and services.